Location: Advent Pentecost Church
(32.7757°N, 96.7408°W)
Time: 07:13:03
(UTC+00:00)

N. Korean satellite - Pass Details

Date: 28 October 2021
Orbit: 447 x 495 km, 97.3° (Epoch: 30 November)

Event Time Altitude Azimuth Distance (km) Brightness Sun altitude
Rises 11:32:15 0° 13° (NNE) 2,574 10.3 -15.1°
Reaches altitude 10° 11:34:20 10° 14° (NNE) 1,682 9.4 -14.7°
Maximum altitude 11:37:57 77° 100° (E) 501 6.7 -13.9°
Drops below altitude 10° 11:41:30 10° 188° (S) 1,645 9.3 -13.2°
Sets 11:43:32 0° 189° (S) 2,510 10.2 -12.8°
